This is the latest recevied weather packets stored in our database for station/object WX2NJ-13. If no packets are shown the sender has not sent any weather packets the latest 10 day(s).
| Time | Temp. | Humidity | Pressure | Rain* | Wind** | Luminosity | Snow |
|---|---|---|---|---|---|---|---|
| 1777672708 | 16.11° C | 53% | 1011.7 hPa | 0 mm | 1.79 m/s, 193° | - | - |
| 1777672409 | 16.11° C | 52% | 1011.7 hPa | 0 mm | 0.89 m/s, 177° | - | - |
| 1777672108 | 16.11° C | 53% | 1011.9 hPa | 0 mm | 1.79 m/s, 177° | - | - |
| 1777671809 | 16.11° C | 55% | 1011.8 hPa | 0 mm | 1.34 m/s, 163° | - | - |
| 1777671511 | 16.11° C | 57% | 1011.9 hPa | 0 mm | 0.45 m/s, 122° | - | - |
| 1777671209 | 16.11° C | 56% | 1011.9 hPa | 0 mm | 0.89 m/s, 153° | - | - |
| 1777670911 | 16.67° C | 54% | 1011.9 hPa | 0 mm | 1.34 m/s, 181° | - | - |
| 1777670612 | 17.22° C | 52% | 1012 hPa | 0 mm | 1.34 m/s, 179° | - | - |
| 1777670311 | 17.22° C | 51% | 1012 hPa | 0 mm | 1.34 m/s, 208° | - | - |
| 1777670012 | 17.78° C | 53% | 1011.9 hPa | 0 mm | 1.34 m/s, 135° | - | - |
| 1777669714 | 17.78° C | 53% | 1012 hPa | 0 mm | 1.34 m/s, 174° | - | - |
| 1777669412 | 17.78° C | 53% | 1011.9 hPa | 0 mm | 1.34 m/s, 195° | - | - |
| 1777669114 | 17.22° C | 55% | 1011.9 hPa | 0 mm | 0.89 m/s, 165° | - | - |
| 1777668815 | 17.22° C | 53% | 1011.8 hPa | 0 mm | 0.89 m/s, 195° | - | - |
| 1777668514 | 17.22° C | 53% | 1011.8 hPa | 0 mm | 1.79 m/s, 155° | - | - |
| 1777668215 | 17.22° C | 56% | 1011.8 hPa | 0 mm | 0 m/s | - | - |
| 1777667917 | 17.22° C | 54% | 1011.8 hPa | 0 mm | 1.34 m/s, 145° | - | - |
| 1777667615 | 17.78° C | 53% | 1011.8 hPa | 0 mm | 2.24 m/s, 122° | - | - |
| 1777667317 | 17.78° C | 54% | 1011.7 hPa | 0 mm | 1.79 m/s, 242° | - | - |
| 1777667018 | 17.22° C | 55% | 1011.9 hPa | 0 mm | 1.79 m/s, 180° | - | - |
| 1777666717 | 17.22° C | 54% | 1012 hPa | 0 mm | 1.34 m/s, 203° | - | - |
| 1777666418 | 17.78° C | 53% | 1011.9 hPa | 0 mm | 1.79 m/s, 160° | - | - |
| 1777666120 | 17.78° C | 52% | 1012 hPa | 0 mm | 1.79 m/s, 145° | - | - |
| 1777665817 | 17.78° C | 51% | 1012 hPa | 0 mm | 1.34 m/s, 158° | - | - |
| 1777665518 | 17.78° C | 52% | 1012.1 hPa | 0 mm | 1.34 m/s, 162° | - | - |
* Rain latest hour (hover to see other rain measurements)
** Current wind speed in m/s (hover to see current wind gust speed)